Regional Weather Roundup
Issued by NWS Little Rock, AR

Home | Current Version | Previous Version | Graphics & Text | Print | Product List | Glossary On
Versions: 1 2 3 4 5 6 7 8 9 10 11 12 13 14 15 16 17 18 19 20 21 22 23 24 25 26 27 28 29 30 31 32 33 34 35 36 37 38 39 40 41 42 43 44 45 46 47 48 49 50
000
ASUS44 KLZK 071205
RWRLZK

WEATHER ROUNDUP FOR ARKANSAS
NATIONAL WEATHER SERVICE LITTLE ROCK AR
700 AM CDT TUE JUL 07 2015

NOTE: "FAIR" INDICATES FEW OR NO CLOUDS BELOW 12,000 FEET WITH NO
SIGNIFICANT WEATHER AND/OR OBSTRUCTIONS TO VISIBILITY.

ARZ001-003-010-029-071300-
NORTHWEST ARKANSAS

CITY           SKY/WX    TMP DP  RH WIND       PRES   REMARKS
FAYETTEVILLE   CLOUDY    75  71  87 S12G17    29.96S
6HR MIN TEMP:  75; 6HR MAX TEMP:  77;

FORT SMITH     CLOUDY    80  70  71 SW6       29.95R
6HR MIN TEMP:  77; 6HR MAX TEMP:  81;

HARRISON       PTCLDY    74  71  91 S8        29.98R
6HR MIN TEMP:  74; 6HR MAX TEMP:  77;

BENTONVILLE    CLOUDY    75  70  83 SW8       29.96S
6HR MIN TEMP:  75; 6HR MAX TEMP:  79;

ROGERS         CLOUDY    76  71  85 SW13      29.96S
6HR MIN TEMP:  76; 6HR MAX TEMP:  79;

SILOAM SPGS    CLOUDY    73  68  83 S10       29.96R
6HR MIN TEMP:  73; 6HR MAX TEMP:  77; 6HR PCP:  0.03;

HIGHFILL       CLOUDY    76  72  87 S10       29.95R
6HR MIN TEMP:  76; 6HR MAX TEMP:  79; 6HR PCP:  0.01;

SPRINGDALE     CLOUDY    77  72  83 S17       29.98R
$$

ARZ004-005-016-071300-
NORTH CENTRAL ARKANSAS

CITY           SKY/WX    TMP DP  RH WIND       PRES   REMARKS
BATESVILLE     MOSUNNY   75  72  88 SW6       29.99R
6HR MIN TEMP:  75; 6HR MAX TEMP:  79;

FLIPPIN        MOSUNNY   79  70  73 S7        29.93F
6HR MIN TEMP:  77; 6HR MAX TEMP:  79;

MTN HOME       CLOUDY    76  71  85 S9        29.95S
6HR MIN TEMP:  75; 6HR MAX TEMP:  76;

$$

ARZ040-041-071300-
WEST CENTRAL ARKANSAS

CITY           SKY/WX    TMP DP  RH WIND       PRES   REMARKS
MENA           CLOUDY    79  72  78 S7        30.02R
MOUNT IDA      MOCLDY    78  71  79 VRB6      29.99R
6HR MIN TEMP:  77; 6HR MAX TEMP:  81;

$$

ARZ009-017-025-026-028-071300-
NORTHEAST ARKANSAS

CITY           SKY/WX    TMP DP  RH WIND       PRES   REMARKS
JONESBORO      PTSUNNY   77  74  90 SW12      29.99R
6HR MIN TEMP:  72; 6HR MAX TEMP:  78;

NEWPORT        PTSUNNY   78  75  90 SW13      30.00R
6HR MIN TEMP:  77; 6HR MAX TEMP:  79;

WALNUT RIDGE   CLOUDY    77  73  88 SW8       29.98R
6HR MIN TEMP:  75; 6HR MAX TEMP:  77;

BLYTHEVILLE    SUNNY     78  75  90 SW10G23   30.00R
6HR MIN TEMP:  73; 6HR MAX TEMP:  78;

$$

ARZ022-023-033-042-044-071300-
CENTRAL ARKANSAS

CITY           SKY/WX    TMP DP  RH WIND       PRES   REMARKS
LITTLE ROCK    PTCLDY    76  71  85 SW8       30.01R
6HR MIN TEMP:  76; 6HR MAX TEMP:  79;

N LITTLE ROCK    N/A     75  74  95 SW7       30.01R
6HR MIN TEMP:  75; 6HR MAX TEMP:  79;

JACKSONVILLE   SUNNY     76  73  89 SW10      30.00R
6HR MIN TEMP:  76; 6HR MAX TEMP:  79;

SEARCY         MOSUNNY   76  73  91 S7        30.01R
6HR MIN TEMP:  75; 6HR MAX TEMP:  78;

HOT SPRINGS    CLEAR     77  72  84 SW7       30.01S
6HR MIN TEMP:  76; 6HR MAX TEMP:  81;

RUSSELLVILLE   MOCLDY    78  72  81 S5        29.97S
6HR MIN TEMP:  77; 6HR MAX TEMP:  79;

CLINTON        FAIR      72  72 100 CALM      30.00S FOG
$$

ARZ036-071300-
EAST ARKANSAS

CITY           SKY/WX    TMP DP  RH WIND       PRES   REMARKS
WEST MEMPHIS   SUNNY     75  75 100 S7        30.02R
6HR MIN TEMP:  74; 6HR MAX TEMP:  79;

$$

ARZ050-053-066-070-073-071300-
SOUTHWEST ARKANSAS

CITY           SKY/WX    TMP DP  RH WIND       PRES   REMARKS
ARKADELPHIA    FAIR      76  76 100 S5        30.01S FOG
6HR MIN TEMP:  75; 6HR MAX TEMP:  78;

CAMDEN         PTCLDY    75  72  88 CALM      30.03R
TEXARKANA      MOCLDY    76  74  93 S10       30.02R
6HR MIN TEMP:  76; 6HR MAX TEMP:  79;

EL DORADO      PTCLDY    74  73  97 S5        30.04S
6HR MIN TEMP:  74; 6HR MAX TEMP:  78;

DE QUEEN       MOCLDY    74  72  93 CALM      29.99R FOG
6HR MIN TEMP:  73; 6HR MAX TEMP:  79;

$$

ARZ056-057-069-071300-
SOUTHEAST ARKANSAS

CITY           SKY/WX    TMP DP  RH WIND       PRES   REMARKS
PINE BLUFF     PTSUNNY   76  73  91 S9        30.03R
6HR MIN TEMP:  75; 6HR MAX TEMP:  78;

STUTTGART      MOSUNNY   77  72  83 MISG      30.01R
6HR MIN TEMP:  75; 6HR MAX TEMP:  81;

MONTICELLO     PTCLDY    76  76 100 S7        30.05R
6HR MIN TEMP:  76; 6HR MAX TEMP:  79;


$$




USA.gov is the U.S. government's official web portal to all federal, state and local government web resources and services.